M I D A S
Marine Information and Data Acquisition System
Tripno 529 of the Zeeleeuw from 2003-07-02 06:09:36 to 2003-07-02 13:08:40
Back to CruiseResearch ActivitiesStationsMapUnderway DataData graphs

EquipmentUnitsComments
TimeDGPSUTC
LatitudeDGPSDM.mWGS84
LongitudeDGPSDM.mWGS84
SpeedMeteo Stationm/sRelative wind speed
DirectionMeteo StationdegRelative wind direction
TemperatureMeteo Stationdeg CelciusAir temperature
PressureMeteo StationPaAtmospheric pressure
HumidityMeteo Station%Relative humidity
Missing or incorrect values are displayed as -999
Metereological data collected by the RV Zeeleeuw from 2003-07-02 06:09:36 to 2003-07-02 13:08:40
                                                                                    Next 1000 lines
Time Latitude Longitude Speed Direction Temperature Pressure Humidity
2003-07-02 06:09:44 51°13.63 2°55.96 9.7 163 16.1 100110 82
2003-07-02 06:09:48 51°13.63 2°55.95 10 157 16.1 100110 82
2003-07-02 06:09:54 51°13.63 2°55.94 6.8 206 16.1 100110 82
2003-07-02 06:09:58 51°13.64 2°55.93 8.9 169 16.1 100100 82
2003-07-02 06:10:04 51°13.64 2°55.92 9.5 167 16.1 100100 82
2003-07-02 06:10:08 51°13.64 2°55.91 9.4 179 16.1 100100 82
2003-07-02 06:10:14 51°13.65 2°55.89 8.9 173 16.1 100100 82
2003-07-02 06:10:18 51°13.65 2°55.89 8.4 175 16.1 100100 82
2003-07-02 06:10:24 51°13.65 2°55.87 8.6 163 16.1 100100 82
2003-07-02 06:10:28 51°13.66 2°55.87 8.8 171 16.1 100100 82
2003-07-02 06:10:34 51°13.66 2°55.85 7.5 174 16.1 100100 82
2003-07-02 06:10:38 51°13.66 2°55.85 7.3 167 16.1 100110 82
2003-07-02 06:10:44 51°13.67 2°55.83 7.3 180 16.1 100110 82
2003-07-02 06:10:48 51°13.67 2°55.82 8.2 167 16.1 100100 82
2003-07-02 06:10:54 51°13.67 2°55.81 6 192 16.1 100100 82
2003-07-02 06:10:58 51°13.67 2°55.8 5.6 170 16.1 100110 82
2003-07-02 06:11:04 51°13.68 2°55.79 8.1 181 16.1 100110 82
2003-07-02 06:11:08 51°13.68 2°55.79 9.2 177 16.1 100110 82
2003-07-02 06:11:14 51°13.68 2°55.77 7.8 165 16.1 100110 82
2003-07-02 06:11:18 51°13.68 2°55.77 8.7 166 16.1 100110 82
2003-07-02 06:11:24 51°13.68 2°55.76 5.9 164 16.1 100110 82
2003-07-02 06:11:28 51°13.69 2°55.75 6.4 171 16.1 100110 82
2003-07-02 06:11:32 51°13.69 2°55.75 4.3 207 16.1 100110 82
2003-07-02 06:11:36 51°13.69 2°55.74 6.9 211 16.1 100100 82
2003-07-02 06:11:40 51°13.69 2°55.74 5.8 152 16.1 100100 82
2003-07-02 06:11:44 51°13.69 2°55.74 5.9 162 16.1 100110 82
2003-07-02 06:11:50 51°13.69 2°55.73 3.7 180 16.1 100110 82
2003-07-02 06:11:54 51°13.69 2°55.73 5.6 158 16.2 100110 82
2003-07-02 06:11:58 51°13.69 2°55.73 2.9 234 16.2 100110 82
2003-07-02 06:12:04 51°13.69 2°55.73 3.8 228 16.2 100110 82
2003-07-02 06:12:08 51°13.69 2°55.73 2.6 222 16.2 100110 82
2003-07-02 06:12:14 51°13.69 2°55.73 2.7 217 16.2 100120 82
2003-07-02 06:12:18 51°13.69 2°55.73 3.5 240 16.2 100120 82
2003-07-02 06:12:24 51°13.69 2°55.73 3.2 254 16.2 100110 82
2003-07-02 06:12:28 51°13.69 2°55.73 3.6 264 16.2 100110 82
2003-07-02 06:12:34 51°13.7 2°55.74 4.8 214 16.2 100110 82
2003-07-02 06:12:38 51°13.7 2°55.74 4.2 292 16.2 100110 82
2003-07-02 06:12:44 51°13.7 2°55.74 4.6 275 16.2 100120 82
2003-07-02 06:12:48 51°13.7 2°55.74 4.2 299 16.2 100120 82
2003-07-02 06:12:54 51°13.71 2°55.74 6 284 16.2 100120 82
2003-07-02 06:12:58 51°13.71 2°55.74 8 272 16.2 100120 82
2003-07-02 06:13:04 51°13.72 2°55.74 7 311 16.2 100110 82
2003-07-02 06:13:08 51°13.72 2°55.74 8 33 16.2 100110 82
2003-07-02 06:13:12 51°13.72 2°55.74 6.3 318 16.2 100120 82
2003-07-02 06:13:18 51°13.73 2°55.73 7.5 312 16.2 100120 82
2003-07-02 06:13:24 51°13.73 2°55.73 6.1 42 16.2 100120 82
2003-07-02 06:13:28 51°13.74 2°55.72 7.2 1 16.2 100120 82
2003-07-02 06:13:32 51°13.74 2°55.72 7.3 327 16.2 100120 82
2003-07-02 06:13:38 51°13.75 2°55.71 8.3 345 16.2 100120 82
2003-07-02 06:13:44 51°13.76 2°55.7 7.1 342 16.2 100110 82
2003-07-02 06:13:48 51°13.76 2°55.69 7.8 359 16.2 100110 82
2003-07-02 06:13:54 51°13.77 2°55.69 8.1 13 16.2 100110 82
2003-07-02 06:13:58 51°13.78 2°55.68 8.3 341 16.2 100110 82
2003-07-02 06:14:04 51°13.79 2°55.67 9.3 13 16.2 100110 82
2003-07-02 06:14:08 51°13.8 2°55.66 8 359 16.2 100110 82
2003-07-02 06:14:14 51°13.81 2°55.65 7.5 338 16.2 100110 82
2003-07-02 06:14:18 51°13.82 2°55.65 10.3 338 16.2 100110 82
2003-07-02 06:14:24 51°13.83 2°55.64 8.9 331 16.2 100110 82
2003-07-02 06:14:28 51°13.84 2°55.63 10.8 335 16.2 100110 82
2003-07-02 06:14:32 51°13.85 2°55.62 10 332 16.2 100100 82
2003-07-02 06:14:38 51°13.86 2°55.61 9 341 16.2 100100 82
2003-07-02 06:14:44 51°13.87 2°55.6 9.1 355 16.1 100100 82
2003-07-02 06:14:48 51°13.88 2°55.6 10.7 325 16.1 100100 82
2003-07-02 06:14:54 51°13.9 2°55.59 11.3 343 16.1 100110 82
2003-07-02 06:14:58 51°13.9 2°55.58 12.2 336 16.1 100110 82
2003-07-02 06:15:04 51°13.92 2°55.57 11.3 330 16.1 100100 81
2003-07-02 06:15:08 51°13.93 2°55.56 7.1 349 16.1 100100 81
2003-07-02 06:15:14 51°13.94 2°55.55 8 3 16.1 100090 81
2003-07-02 06:15:20 51°13.95 2°55.54 10.9 317 16.1 100090 81
2003-07-02 06:15:24 51°13.96 2°55.54 11.3 319 16.1 100080 81
2003-07-02 06:15:28 51°13.97 2°55.53 9.6 344 16.1 100080 81
2003-07-02 06:15:34 51°13.99 2°55.52 9 357 16.1 100100 81
2003-07-02 06:15:38 51°13.99 2°55.52 8.8 325 16.1 100100 81
2003-07-02 06:15:44 51°14.01 2°55.51 7.7 350 16.1 100100 81
2003-07-02 06:15:48 51°14.02 2°55.5 8.7 336 16.1 100100 81
2003-07-02 06:15:54 51°14.03 2°55.49 6.8 340 16.1 100100 81
2003-07-02 06:15:58 51°14.04 2°55.48 9.1 324 16.1 100100 81
2003-07-02 06:16:04 51°14.05 2°55.47 9.6 343 16.1 100110 81
2003-07-02 06:16:08 51°14.06 2°55.46 14.9 336 16.1 100110 81
2003-07-02 06:16:14 51°14.08 2°55.45 14.8 335 16.1 100110 82
2003-07-02 06:16:18 51°14.09 2°55.45 14.5 322 16.1 100110 82
2003-07-02 06:16:24 51°14.1 2°55.44 15.2 330 16.2 100110 82
2003-07-02 06:16:28 51°14.11 2°55.43 15.5 337 16.2 100110 82
2003-07-02 06:16:34 51°14.12 2°55.42 15.7 338 16.2 100090 81
2003-07-02 06:16:38 51°14.13 2°55.41 14.7 333 16.2 100090 81
2003-07-02 06:16:44 51°14.14 2°55.4 14.6 335 16.2 100100 81
2003-07-02 06:16:48 51°14.15 2°55.39 16.9 334 16.2 100100 81
2003-07-02 06:16:54 51°14.17 2°55.38 16 337 16.2 100090 81
2003-07-02 06:16:58 51°14.17 2°55.37 16.8 342 16.2 100090 81
2003-07-02 06:17:04 51°14.19 2°55.36 15.9 339 16.2 100090 81
2003-07-02 06:17:08 51°14.19 2°55.35 14.3 341 16.2 100090 81
2003-07-02 06:17:14 51°14.21 2°55.33 13.2 347 16.2 100100 81
2003-07-02 06:17:18 51°14.21 2°55.32 14 342 16.2 100100 81
2003-07-02 06:17:24 51°14.23 2°55.31 12.2 346 16.1 100090 81
2003-07-02 06:17:28 51°14.23 2°55.3 13.9 348 16.1 100090 81
2003-07-02 06:17:32 51°14.24 2°55.29 16.9 347 16.2 100090 81
2003-07-02 06:17:38 51°14.25 2°55.27 15.1 346 16.2 100090 81
2003-07-02 06:17:44 51°14.26 2°55.25 16.5 344 16.2 100100 81
2003-07-02 06:17:48 51°14.27 2°55.24 13.4 355 16.2 100100 81
2003-07-02 06:17:54 51°14.28 2°55.22 14.1 345 16.2 100100 81
2003-07-02 06:17:58 51°14.28 2°55.21 15.7 354 16.2 100100 81
2003-07-02 06:18:04 51°14.29 2°55.19 17.8 343 16.1 100100 81
2003-07-02 06:18:08 51°14.3 2°55.18 15.3 345 16.1 100100 81
2003-07-02 06:18:14 51°14.31 2°55.16 18.1 347 16.1 100090 81
2003-07-02 06:18:20 51°14.32 2°55.14 18 347 16.1 100090 81
2003-07-02 06:18:24 51°14.33 2°55.13 17.2 348 16.1 100100 81
2003-07-02 06:18:28 51°14.33 2°55.12 17.4 344 16.1 100100 81
2003-07-02 06:18:34 51°14.34 2°55.1 17.5 346 16.2 100090 81
2003-07-02 06:18:38 51°14.35 2°55.09 18.2 342 16.2 100090 81
2003-07-02 06:18:44 51°14.36 2°55.07 18.4 344 16.2 100080 81
2003-07-02 06:18:48 51°14.37 2°55.06 18.2 348 16.2 100080 81
2003-07-02 06:18:54 51°14.38 2°55.04 18.4 348 16.1 100060 81
2003-07-02 06:18:58 51°14.38 2°55.02 17.9 345 16.1 100060 81
2003-07-02 06:19:04 51°14.39 2°55 19.1 348 16 100090 80
2003-07-02 06:19:08 51°14.4 2°54.98 19.2 352 16 100090 80
2003-07-02 06:19:14 51°14.4 2°54.96 18.7 352 16 100070 80
2003-07-02 06:19:18 51°14.41 2°54.95 18.8 360 16 100070 80
2003-07-02 06:19:24 51°14.41 2°54.92 17.6 358 15.9 100080 79
2003-07-02 06:19:28 51°14.42 2°54.9 18.9 2 15.9 100080 79
2003-07-02 06:19:34 51°14.42 2°54.88 17.8 2 15.9 100060 79
2003-07-02 06:19:38 51°14.42 2°54.86 18 7 15.9 100060 79
2003-07-02 06:19:44 51°14.42 2°54.83 16.7 9 15.9 100070 79
2003-07-02 06:19:48 51°14.42 2°54.81 17.2 10 15.9 100070 79
2003-07-02 06:19:54 51°14.42 2°54.79 16.9 10 15.9 100090 79
2003-07-02 06:19:58 51°14.42 2°54.77 17.7 12 15.9 100090 79
2003-07-02 06:20:04 51°14.42 2°54.74 17.6 12 15.9 100090 79
2003-07-02 06:20:08 51°14.42 2°54.72 16.2 17 15.9 100090 79
2003-07-02 06:20:14 51°14.42 2°54.69 16.4 19 15.9 100120 80
2003-07-02 06:20:18 51°14.42 2°54.67 17.5 23 15.9 100120 80
2003-07-02 06:20:24 51°14.41 2°54.65 17.4 20 16 100100 80
2003-07-02 06:20:28 51°14.41 2°54.63 17.4 19 16 100100 80
2003-07-02 06:20:34 51°14.41 2°54.6 16 18 15.9 100110 79
2003-07-02 06:20:38 51°14.4 2°54.58 17.5 22 15.9 100110 79
2003-07-02 06:20:44 51°14.4 2°54.55 16.4 19 15.9 100110 79
2003-07-02 06:20:48 51°14.4 2°54.53 16.8 24 15.9 100110 79
2003-07-02 06:20:54 51°14.39 2°54.5 17.4 26 15.9 100100 79
2003-07-02 06:20:58 51°14.38 2°54.48 18.2 26 15.9 100100 79
2003-07-02 06:21:04 51°14.38 2°54.45 17.5 23 15.9 100100 79
2003-07-02 06:21:08 51°14.37 2°54.43 16.2 20 15.9 100100 79
2003-07-02 06:21:14 51°14.36 2°54.4 17.1 20 16 100110 80
2003-07-02 06:21:18 51°14.36 2°54.38 16.3 27 16 100110 80
2003-07-02 06:21:24 51°14.35 2°54.35 17 17 16 100120 80
2003-07-02 06:21:28 51°14.34 2°54.33 18 24 16 100120 80
2003-07-02 06:21:34 51°14.34 2°54.3 16.7 26 16 100110 80
2003-07-02 06:21:38 51°14.33 2°54.28 17.6 25 16 100110 80
2003-07-02 06:21:44 51°14.32 2°54.25 17.6 27 16 100120 81
2003-07-02 06:21:48 51°14.31 2°54.23 15.7 34 16 100120 81
2003-07-02 06:21:54 51°14.3 2°54.2 16.8 24 16 100110 80
2003-07-02 06:21:58 51°14.3 2°54.18 16.8 29 16 100110 80
2003-07-02 06:22:04 51°14.29 2°54.15 16.9 28 16 100100 80
2003-07-02 06:22:08 51°14.28 2°54.13 16.5 30 16 100100 80
2003-07-02 06:22:14 51°14.27 2°54.1 16 31 16 100090 81
2003-07-02 06:22:18 51°14.26 2°54.08 17.2 26 16 100090 81
2003-07-02 06:22:24 51°14.25 2°54.05 17.2 26 16 100110 80
2003-07-02 06:22:28 51°14.24 2°54.03 17.1 28 16 100110 80
2003-07-02 06:22:32 51°14.24 2°54.01 16.9 29 15.9 100100 80
2003-07-02 06:22:38 51°14.23 2°53.98 17 21 15.9 100100 80
2003-07-02 06:22:44 51°14.22 2°53.95 16.4 21 15.9 100110 81
2003-07-02 06:22:48 51°14.21 2°53.94 17.4 24 15.9 100110 81
2003-07-02 06:22:54 51°14.2 2°53.91 16.6 25 15.9 100120 81
2003-07-02 06:22:58 51°14.19 2°53.89 16.4 27 15.9 100120 81
2003-07-02 06:23:04 51°14.18 2°53.86 17.2 25 15.9 100090 81
2003-07-02 06:23:08 51°14.17 2°53.84 15.9 29 15.9 100090 81
2003-07-02 06:23:14 51°14.16 2°53.81 15.8 28 16 100110 81
2003-07-02 06:23:18 51°14.16 2°53.79 16.9 29 16 100110 81
2003-07-02 06:23:24 51°14.15 2°53.76 15.9 26 16 100110 82
2003-07-02 06:23:28 51°14.14 2°53.74 18.2 26 16 100110 82
2003-07-02 06:23:34 51°14.13 2°53.71 17.7 24 16 100120 82
2003-07-02 06:23:38 51°14.12 2°53.69 18.4 27 16 100120 82
2003-07-02 06:23:44 51°14.11 2°53.66 17 20 16.1 100110 82
2003-07-02 06:23:48 51°14.1 2°53.64 17.3 23 16.1 100110 82
2003-07-02 06:23:54 51°14.09 2°53.61 18.1 25 16 100110 82
2003-07-02 06:24:00 51°14.08 2°53.58 18.4 26 16 100110 82
2003-07-02 06:24:04 51°14.08 2°53.56 18.2 29 16 100100 82
2003-07-02 06:24:08 51°14.07 2°53.54 17.6 23 16 100100 82
2003-07-02 06:24:12 51°14.06 2°53.52 18.2 24 16 100110 82
2003-07-02 06:24:18 51°14.05 2°53.49 17.4 25 16 100110 82
2003-07-02 06:24:24 51°14.04 2°53.46 16.6 25 16 100110 82
2003-07-02 06:24:28 51°14.03 2°53.44 16.9 24 16 100110 82
2003-07-02 06:24:34 51°14.02 2°53.41 17.9 22 16 100090 83
2003-07-02 06:24:38 51°14.01 2°53.39 18.8 28 16 100090 83
2003-07-02 06:24:44 51°14 2°53.35 16.7 24 16 100110 83
2003-07-02 06:24:48 51°14 2°53.33 18.8 27 16 100110 83
2003-07-02 06:24:54 51°13.98 2°53.3 17.5 27 16 100110 83
2003-07-02 06:24:58 51°13.98 2°53.28 19.1 24 16 100110 83
2003-07-02 06:25:04 51°13.97 2°53.25 18.6 24 16 100100 83
2003-07-02 06:25:08 51°13.96 2°53.22 18.9 23 16 100100 83
2003-07-02 06:25:14 51°13.95 2°53.19 19.9 28 16 100100 83
2003-07-02 06:25:18 51°13.94 2°53.17 17.5 24 16 100100 83
2003-07-02 06:25:24 51°13.93 2°53.14 18.5 25 16 100100 83
2003-07-02 06:25:28 51°13.92 2°53.12 18.8 28 16 100100 83
2003-07-02 06:25:34 51°13.91 2°53.08 17.9 26 16 100090 83
2003-07-02 06:25:38 51°13.9 2°53.06 17.4 29 16 100090 83
2003-07-02 06:25:44 51°13.89 2°53.03 19.1 30 16 100100 83
2003-07-02 06:25:48 51°13.88 2°53.01 17 34 16 100100 83
2003-07-02 06:25:54 51°13.87 2°52.98 17 28 16 100100 83
2003-07-02 06:25:58 51°13.86 2°52.96 17.4 28 16 100100 83
2003-07-02 06:26:04 51°13.85 2°52.92 17.5 29 16 100110 83
2003-07-02 06:26:08 51°13.84 2°52.9 16.9 28 16 100110 83
2003-07-02 06:26:14 51°13.83 2°52.87 16.9 27 16 100090 83
2003-07-02 06:26:20 51°13.82 2°52.84 18.3 22 16 100090 83
2003-07-02 06:26:24 51°13.81 2°52.81 17.8 25 16 100110 84
2003-07-02 06:26:28 51°13.81 2°52.79 17.7 29 16 100110 84
2003-07-02 06:26:34 51°13.79 2°52.76 18.1 27 16 100110 84
2003-07-02 06:26:38 51°13.79 2°52.74 17.3 25 16 100110 84
2003-07-02 06:26:44 51°13.78 2°52.71 17.3 26 16 100100 84
2003-07-02 06:26:48 51°13.77 2°52.68 17.5 26 16 100100 84
2003-07-02 06:26:54 51°13.76 2°52.65 16 29 16 100110 83
2003-07-02 06:27:00 51°13.74 2°52.62 17.7 26 16 100110 83
2003-07-02 06:27:04 51°13.74 2°52.6 17.9 31 16 100100 84
2003-07-02 06:27:08 51°13.73 2°52.58 17.2 28 16 100100 84
2003-07-02 06:27:14 51°13.72 2°52.54 15.7 23 16 100120 84
2003-07-02 06:27:18 51°13.71 2°52.52 16.4 27 16 100120 84
2003-07-02 06:27:24 51°13.7 2°52.49 17.9 26 16 100110 84
2003-07-02 06:27:28 51°13.69 2°52.47 18.3 32 16 100110 84
2003-07-02 06:27:34 51°13.68 2°52.43 17.9 27 16 100120 84
2003-07-02 06:27:38 51°13.67 2°52.41 16.8 29 16 100120 84
2003-07-02 06:27:44 51°13.66 2°52.38 16.9 27 16 100100 84
2003-07-02 06:27:48 51°13.65 2°52.36 13.8 23 16 100100 84
2003-07-02 06:27:54 51°13.64 2°52.33 16.1 25 16 100100 84
2003-07-02 06:27:58 51°13.63 2°52.3 16 25 16 100100 84
2003-07-02 06:28:04 51°13.62 2°52.27 15.8 25 16 100110 83
2003-07-02 06:28:08 51°13.61 2°52.25 17 26 16 100110 83
2003-07-02 06:28:14 51°13.6 2°52.22 16.9 24 16 100110 84
2003-07-02 06:28:18 51°13.59 2°52.19 19 26 16 100110 84
2003-07-02 06:28:24 51°13.58 2°52.16 18.5 29 16 100110 84
2003-07-02 06:28:28 51°13.58 2°52.14 17 28 16 100110 84
2003-07-02 06:28:34 51°13.56 2°52.11 17.9 32 16 100100 84
2003-07-02 06:28:38 51°13.56 2°52.08 17.9 36 16 100100 84
2003-07-02 06:28:44 51°13.55 2°52.05 16.5 34 16.1 100110 84
2003-07-02 06:28:48 51°13.54 2°52.03 17.4 33 16.1 100110 84
2003-07-02 06:28:54 51°13.53 2°52 16.9 31 16.1 100110 84
2003-07-02 06:28:58 51°13.52 2°51.98 16 29 16.1 100110 84
2003-07-02 06:29:04 51°13.51 2°51.94 17.2 32 16.1 100100 84
2003-07-02 06:29:08 51°13.5 2°51.92 17.7 28 16.1 100100 84
2003-07-02 06:29:14 51°13.49 2°51.89 17.6 28 16 100090 84
2003-07-02 06:29:18 51°13.48 2°51.87 17.9 30 16 100090 84
2003-07-02 06:29:24 51°13.47 2°51.83 17.6 30 16.1 100100 85
2003-07-02 06:29:28 51°13.46 2°51.81 17 30 16.1 100100 85
2003-07-02 06:29:34 51°13.45 2°51.78 16.5 29 16.1 100110 85
2003-07-02 06:29:38 51°13.44 2°51.76 19.3 27 16.1 100110 85
2003-07-02 06:29:44 51°13.43 2°51.72 17 24 16.1 100110 84
2003-07-02 06:29:48 51°13.42 2°51.7 16.8 24 16.1 100110 84
2003-07-02 06:29:54 51°13.41 2°51.67 17 23 16.1 100100 84
2003-07-02 06:30:00 51°13.4 2°51.64 17.5 32 16.1 100100 84
2003-07-02 06:30:04 51°13.39 2°51.62 16.8 31 16 100110 84
2003-07-02 06:30:08 51°13.39 2°51.59 17.4 36 16 100110 84
2003-07-02 06:30:14 51°13.37 2°51.56 17 32 16.1 100110 84
2003-07-02 06:30:18 51°13.37 2°51.54 17.7 40 16.1 100110 84
2003-07-02 06:30:24 51°13.36 2°51.51 17.3 38 16.1 100120 84
2003-07-02 06:30:28 51°13.35 2°51.48 17.2 38 16.1 100120 84
2003-07-02 06:30:32 51°13.34 2°51.46 17 37 16.1 100110 84
2003-07-02 06:30:38 51°13.33 2°51.43 16.4 31 16.1 100110 84
2003-07-02 06:30:44 51°13.32 2°51.4 16.7 31 16.1 100110 84
2003-07-02 06:30:48 51°13.31 2°51.38 17.8 27 16.1 100110 84
2003-07-02 06:30:54 51°13.3 2°51.34 17.7 28 16.1 100100 84
2003-07-02 06:30:58 51°13.29 2°51.32 18.3 31 16.1 100100 84
2003-07-02 06:31:04 51°13.28 2°51.29 18.1 33 16.1 100110 84
2003-07-02 06:31:08 51°13.27 2°51.27 18.6 30 16.1 100110 84
2003-07-02 06:31:14 51°13.26 2°51.23 19.1 33 16.2 100120 84
2003-07-02 06:31:18 51°13.25 2°51.21 17.7 27 16.2 100120 84
2003-07-02 06:31:24 51°13.24 2°51.18 17.1 31 16.2 100110 84
2003-07-02 06:31:28 51°13.23 2°51.16 17.4 33 16.2 100110 84
2003-07-02 06:31:34 51°13.22 2°51.12 17.2 35 16.1 100110 84
2003-07-02 06:31:38 51°13.21 2°51.1 17.2 35 16.1 100110 84
2003-07-02 06:31:44 51°13.2 2°51.07 17 30 16.2 100120 84
2003-07-02 06:31:48 51°13.19 2°51.05 16.5 31 16.2 100120 84
2003-07-02 06:31:54 51°13.18 2°51.01 14.9 34 16.1 100120 83
2003-07-02 06:31:58 51°13.18 2°50.99 16.9 32 16.1 100120 83
2003-07-02 06:32:04 51°13.16 2°50.96 16.6 35 16.1 100110 84
2003-07-02 06:32:08 51°13.16 2°50.94 16.5 28 16.1 100110 84
2003-07-02 06:32:14 51°13.14 2°50.91 15.8 32 16.2 100110 84
2003-07-02 06:32:20 51°13.13 2°50.87 17.8 28 16.2 100110 84
2003-07-02 06:32:24 51°13.13 2°50.85 17.1 27 16.2 100110 84
2003-07-02 06:32:28 51°13.12 2°50.83 19.9 30 16.2 100110 84
2003-07-02 06:32:34 51°13.11 2°50.79 17.1 26 16.2 100120 84
2003-07-02 06:32:38 51°13.1 2°50.77 18.3 31 16.2 100120 84
2003-07-02 06:32:44 51°13.09 2°50.74 18.1 29 16.2 100110 84
2003-07-02 06:32:48 51°13.08 2°50.72 17.1 31 16.2 100110 84
2003-07-02 06:32:54 51°13.07 2°50.69 15.9 33 16.2 100120 84
2003-07-02 06:32:58 51°13.06 2°50.66 18.7 32 16.2 100120 84
2003-07-02 06:33:04 51°13.05 2°50.63 17.9 34 16.2 100120 84
2003-07-02 06:33:08 51°13.04 2°50.61 17.9 28 16.2 100120 84
2003-07-02 06:33:14 51°13.03 2°50.58 17.6 28 16.2 100120 84
2003-07-02 06:33:18 51°13.02 2°50.55 18 29 16.2 100120 84
2003-07-02 06:33:24 51°13.01 2°50.52 17.9 31 16.1 100120 83
2003-07-02 06:33:28 51°13 2°50.5 17.2 29 16.1 100120 83
2003-07-02 06:33:34 51°12.99 2°50.47 15.8 31 16.1 100110 83
2003-07-02 06:33:38 51°12.98 2°50.44 18.6 34 16.1 100110 83
2003-07-02 06:33:44 51°12.97 2°50.41 17.4 36 16.1 100120 83
2003-07-02 06:33:48 51°12.96 2°50.39 17.2 28 16.1 100120 83
2003-07-02 06:33:54 51°12.95 2°50.36 15.7 34 16.1 100120 83
2003-07-02 06:33:58 51°12.95 2°50.34 16.5 33 16.1 100120 83
2003-07-02 06:34:04 51°12.93 2°50.3 17.7 32 16.1 100120 83
2003-07-02 06:34:08 51°12.93 2°50.28 18.1 32 16.1 100120 83
2003-07-02 06:34:14 51°12.91 2°50.25 19.3 33 16.1 100120 83
2003-07-02 06:34:18 51°12.91 2°50.23 16 37 16.1 100120 83
2003-07-02 06:34:24 51°12.9 2°50.19 16.7 39 16.1 100120 84
2003-07-02 06:34:28 51°12.89 2°50.17 17.5 33 16.1 100120 84
2003-07-02 06:34:34 51°12.88 2°50.14 18 30 16.2 100120 84
2003-07-02 06:34:38 51°12.87 2°50.12 17.3 31 16.2 100120 84
2003-07-02 06:34:44 51°12.86 2°50.09 17.5 34 16.2 100120 84
2003-07-02 06:34:48 51°12.85 2°50.06 16.3 33 16.2 100120 84
2003-07-02 06:34:54 51°12.84 2°50.03 17.8 29 16.2 100130 84
2003-07-02 06:34:58 51°12.83 2°50.01 16.5 30 16.2 100130 84
2003-07-02 06:35:04 51°12.82 2°49.98 16.7 34 16.1 100120 83
2003-07-02 06:35:08 51°12.81 2°49.95 17.7 34 16.1 100120 83
2003-07-02 06:35:14 51°12.8 2°49.92 18.5 32 16.2 100120 84
2003-07-02 06:35:18 51°12.79 2°49.9 17.2 33 16.2 100120 84
2003-07-02 06:35:24 51°12.78 2°49.87 18.1 29 16.2 100130 84
2003-07-02 06:35:28 51°12.77 2°49.85 17.6 29 16.2 100130 84
2003-07-02 06:35:34 51°12.76 2°49.81 16.9 29 16.1 100120 83
2003-07-02 06:35:38 51°12.75 2°49.79 19.4 32 16.1 100120 83
2003-07-02 06:35:44 51°12.74 2°49.76 18.9 36 16.1 100110 83
2003-07-02 06:35:48 51°12.74 2°49.74 18.5 33 16.1 100110 83
2003-07-02 06:35:54 51°12.72 2°49.7 18.1 36 16.1 100130 83
2003-07-02 06:35:58 51°12.72 2°49.68 18.1 34 16.1 100130 83
2003-07-02 06:36:04 51°12.7 2°49.65 18.1 35 16.1 100120 83
2003-07-02 06:36:08 51°12.7 2°49.63 18.3 33 16.1 100120 83
2003-07-02 06:36:14 51°12.69 2°49.59 15.5 32 16 100120 83
2003-07-02 06:36:20 51°12.67 2°49.56 18 36 16 100120 83
2003-07-02 06:36:24 51°12.67 2°49.54 18.1 35 16 100120 83
2003-07-02 06:36:28 51°12.66 2°49.52 16.4 31 16 100120 83
2003-07-02 06:36:34 51°12.65 2°49.48 16.9 34 16 100120 83
2003-07-02 06:36:38 51°12.64 2°49.46 16.8 32 16 100120 83
2003-07-02 06:36:44 51°12.63 2°49.43 18.7 31 16 100130 82
2003-07-02 06:36:48 51°12.62 2°49.41 17.5 29 16 100130 82
2003-07-02 06:36:54 51°12.61 2°49.38 18.7 33 16 100130 82
2003-07-02 06:36:58 51°12.6 2°49.35 18.3 32 16 100130 82
2003-07-02 06:37:04 51°12.59 2°49.32 16.8 28 16 100120 83
2003-07-02 06:37:08 51°12.58 2°49.3 18.2 27 16 100120 83
2003-07-02 06:37:14 51°12.57 2°49.27 17.6 29 16 100120 83
2003-07-02 06:37:18 51°12.56 2°49.24 19 29 16 100120 83
2003-07-02 06:37:24 51°12.55 2°49.21 19.3 30 16 100130 83
2003-07-02 06:37:28 51°12.55 2°49.19 18.3 24 16 100130 83
2003-07-02 06:37:34 51°12.53 2°49.16 18.2 31 16 100130 83
2003-07-02 06:37:38 51°12.53 2°49.13 17.6 29 16 100130 83
2003-07-02 06:37:44 51°12.52 2°49.1 16.6 26 15.9 100130 82
2003-07-02 06:37:48 51°12.51 2°49.08 17.5 30 15.9 100130 82
2003-07-02 06:37:54 51°12.5 2°49.05 16.7 28 15.9 100140 82
2003-07-02 06:38:00 51°12.49 2°49.01 17.9 33 15.9 100140 82
2003-07-02 06:38:04 51°12.48 2°48.99 16.6 27 15.9 100120 82
2003-07-02 06:38:08 51°12.47 2°48.97 18.9 28 15.9 100120 82
2003-07-02 06:38:14 51°12.46 2°48.94 18.7 27 15.9 100130 82
2003-07-02 06:38:18 51°12.45 2°48.92 19.1 33 15.9 100130 82
2003-07-02 06:38:24 51°12.44 2°48.88 18.4 32 15.9 100130 82
2003-07-02 06:38:28 51°12.43 2°48.86 19.3 30 15.9 100130 82
2003-07-02 06:38:34 51°12.42 2°48.83 18.7 28 15.9 100130 82
2003-07-02 06:38:38 51°12.41 2°48.81 18.2 35 15.9 100130 82
2003-07-02 06:38:44 51°12.4 2°48.77 18.3 33 15.8 100140 81
2003-07-02 06:38:48 51°12.4 2°48.75 17.6 30 15.8 100140 81
2003-07-02 06:38:54 51°12.38 2°48.72 18.2 29 15.8 100130 81
2003-07-02 06:38:58 51°12.38 2°48.7 19.4 27 15.8 100130 81
2003-07-02 06:39:04 51°12.37 2°48.66 18 30 15.8 100130 81
2003-07-02 06:39:08 51°12.36 2°48.64 18.8 27 15.8 100130 81
2003-07-02 06:39:14 51°12.35 2°48.61 17.5 30 15.8 100130 82
2003-07-02 06:39:18 51°12.34 2°48.59 18 33 15.8 100130 82
2003-07-02 06:39:24 51°12.33 2°48.55 18.1 32 15.8 100140 81
2003-07-02 06:39:28 51°12.32 2°48.53 16.5 25 15.8 100140 81
2003-07-02 06:39:34 51°12.31 2°48.5 18.7 27 15.8 100130 81
2003-07-02 06:39:38 51°12.3 2°48.48 18 30 15.8 100130 81
2003-07-02 06:39:44 51°12.29 2°48.45 19.1 28 15.8 100120 81
2003-07-02 06:39:48 51°12.28 2°48.42 17.2 24 15.8 100120 81
2003-07-02 06:39:54 51°12.27 2°48.39 17.9 26 15.8 100120 81
2003-07-02 06:39:58 51°12.26 2°48.37 15.8 30 15.8 100120 81
2003-07-02 06:40:04 51°12.25 2°48.34 16.3 29 15.8 100140 80
2003-07-02 06:40:08 51°12.25 2°48.31 17.5 28 15.8 100140 80
2003-07-02 06:40:14 51°12.23 2°48.28 17.7 28 15.8 100140 81
2003-07-02 06:40:18 51°12.23 2°48.26 18.2 28 15.8 100140 81
2003-07-02 06:40:24 51°12.22 2°48.23 17.1 31 15.8 100130 81
2003-07-02 06:40:28 51°12.21 2°48.2 16.6 24 15.8 100130 81
2003-07-02 06:40:34 51°12.2 2°48.17 18.5 28 15.8 100140 81
2003-07-02 06:40:38 51°12.19 2°48.15 18 29 15.8 100140 81
2003-07-02 06:40:44 51°12.18 2°48.12 18.3 29 15.8 100130 81
2003-07-02 06:40:48 51°12.17 2°48.09 16.4 28 15.8 100130 81
2003-07-02 06:40:54 51°12.16 2°48.06 17.5 27 15.9 100130 81
2003-07-02 06:41:00 51°12.15 2°48.03 17.9 23 15.9 100130 81
2003-07-02 06:41:04 51°12.14 2°48.01 17.5 26 15.9 100140 81
2003-07-02 06:41:08 51°12.13 2°47.99 17.2 24 15.9 100140 81
2003-07-02 06:41:14 51°12.12 2°47.95 18.3 26 15.9 100140 81
2003-07-02 06:41:18 51°12.11 2°47.93 17.5 25 15.9 100140 81
2003-07-02 06:41:24 51°12.1 2°47.9 16.6 28 15.9 100140 82
2003-07-02 06:41:28 51°12.1 2°47.88 16.4 26 15.9 100140 82
2003-07-02 06:41:34 51°12.08 2°47.84 16.2 24 15.9 100140 81
2003-07-02 06:41:38 51°12.08 2°47.82 17.5 27 15.9 100140 81
2003-07-02 06:41:44 51°12.07 2°47.79 17.3 27 15.9 100140 81
2003-07-02 06:41:48 51°12.06 2°47.77 15.9 22 15.9 100140 81
2003-07-02 06:41:54 51°12.05 2°47.73 16.7 24 15.9 100140 81
2003-07-02 06:41:58 51°12.04 2°47.71 16.9 22 15.9 100140 81
2003-07-02 06:42:04 51°12.03 2°47.68 17.6 21 15.9 100150 82
2003-07-02 06:42:08 51°12.02 2°47.65 16.9 26 15.9 100150 82
2003-07-02 06:42:14 51°12.01 2°47.62 16.5 24 15.9 100140 82
2003-07-02 06:42:18 51°12.01 2°47.6 16.5 26 15.9 100140 82
2003-07-02 06:42:24 51°12 2°47.56 16.4 26 15.9 100130 82
2003-07-02 06:42:28 51°11.99 2°47.54 17.5 23 15.9 100130 82
2003-07-02 06:42:34 51°11.98 2°47.51 18 21 15.9 100140 82
2003-07-02 06:42:38 51°11.97 2°47.48 17.6 22 15.9 100140 82
2003-07-02 06:42:44 51°11.96 2°47.45 18.4 24 15.8 100130 82
2003-07-02 06:42:48 51°11.96 2°47.43 17.6 27 15.8 100130 82
2003-07-02 06:42:54 51°11.95 2°47.39 17.3 28 15.9 100140 82
2003-07-02 06:43:00 51°11.94 2°47.36 16 24 15.9 100140 82
2003-07-02 06:43:04 51°11.93 2°47.34 16.2 24 15.8 100140 82
2003-07-02 06:43:08 51°11.92 2°47.31 15.9 23 15.8 100140 82
2003-07-02 06:43:14 51°11.91 2°47.28 17.2 24 15.8 100140 82
2003-07-02 06:43:20 51°11.9 2°47.25 16 25 15.8 100140 82
2003-07-02 06:43:24 51°11.9 2°47.22 16.8 20 15.8 100140 82
2003-07-02 06:43:28 51°11.89 2°47.2 17.8 22 15.8 100140 82
2003-07-02 06:43:34 51°11.88 2°47.16 16.5 22 15.8 100140 82
2003-07-02 06:43:38 51°11.87 2°47.14 17.7 26 15.8 100140 82
2003-07-02 06:43:44 51°11.86 2°47.11 18.3 26 15.9 100150 83
2003-07-02 06:43:48 51°11.86 2°47.08 16 20 15.9 100150 83
2003-07-02 06:43:54 51°11.85 2°47.05 16.4 24 15.9 100150 82
2003-07-02 06:43:58 51°11.84 2°47.03 16.9 20 15.9 100150 82
2003-07-02 06:44:04 51°11.84 2°46.99 16.5 22 15.9 100160 82
2003-07-02 06:44:08 51°11.83 2°46.97 17.5 25 15.9 100160 82
2003-07-02 06:44:14 51°11.82 2°46.93 18.1 22 15.8 100140 82
2003-07-02 06:44:18 51°11.81 2°46.91 16.9 21 15.8 100140 82
2003-07-02 06:44:24 51°11.81 2°46.87 16.7 22 15.9 100150 82
2003-07-02 06:44:28 51°11.8 2°46.85 15.9 19 15.9 100150 82
2003-07-02 06:44:34 51°11.79 2°46.82 16.3 19 15.9 100150 83
2003-07-02 06:44:38 51°11.79 2°46.79 17.2 19 15.9 100150 83
2003-07-02 06:44:44 51°11.78 2°46.76 16.8 20 15.9 100160 82
2003-07-02 06:44:48 51°11.77 2°46.73 17.8 24 15.9 100160 82
2003-07-02 06:44:54 51°11.76 2°46.7 16.9 23 15.8 100150 83
2003-07-02 06:45:00 51°11.75 2°46.66 16 20 15.8 100150 83
2003-07-02 06:45:04 51°11.75 2°46.64 17.1 22 15.9 100150 83
2003-07-02 06:45:08 51°11.74 2°46.62 16.5 24 15.9 100150 83
2003-07-02 06:45:14 51°11.73 2°46.59 18 24 15.9 100150 83
2003-07-02 06:45:20 51°11.72 2°46.55 16.9 26 15.9 100150 83
2003-07-02 06:45:24 51°11.71 2°46.53 16.5 27 15.9 100150 83
2003-07-02 06:45:28 51°11.7 2°46.51 16.1 21 15.9 100150 83
2003-07-02 06:45:34 51°11.69 2°46.48 16.6 26 15.9 100140 83
2003-07-02 06:45:38 51°11.68 2°46.45 14.9 25 15.9 100140 83
2003-07-02 06:45:44 51°11.67 2°46.42 15.3 20 15.8 100150 82
2003-07-02 06:45:48 51°11.66 2°46.4 17 22 15.8 100150 82
2003-07-02 06:45:54 51°11.65 2°46.36 18.3 25 15.8 100150 83
2003-07-02 06:45:58 51°11.65 2°46.34 17 22 15.8 100150 83
2003-07-02 06:46:04 51°11.63 2°46.31 17 24 15.9 100150 83
2003-07-02 06:46:08 51°11.63 2°46.29 17.3 29 15.9 100150 83
2003-07-02 06:46:14 51°11.62 2°46.25 17.6 28 15.9 100150 83
2003-07-02 06:46:18 51°11.61 2°46.23 17.1 31 15.9 100150 83
2003-07-02 06:46:24 51°11.6 2°46.2 17.8 27 15.8 100150 83
2003-07-02 06:46:28 51°11.59 2°46.17 17.1 28 15.8 100150 83
2003-07-02 06:46:34 51°11.58 2°46.14 16 26 15.8 100150 83
2003-07-02 06:46:38 51°11.57 2°46.12 15.3 35 15.8 100150 83
2003-07-02 06:46:44 51°11.56 2°46.08 15.2 31 15.9 100160 83
2003-07-02 06:46:48 51°11.55 2°46.06 15.9 26 15.9 100160 83
2003-07-02 06:46:54 51°11.54 2°46.03 16.9 23 15.9 100150 83
2003-07-02 06:46:58 51°11.54 2°46.01 18.1 27 15.9 100150 83
2003-07-02 06:47:04 51°11.52 2°45.97 18 31 15.9 100150 83
2003-07-02 06:47:08 51°11.52 2°45.95 18.2 29 15.9 100150 83
2003-07-02 06:47:14 51°11.51 2°45.92 18.2 29 16 100160 84
2003-07-02 06:47:18 51°11.5 2°45.89 17.4 28 16 100160 84
2003-07-02 06:47:24 51°11.49 2°45.86 16.8 24 15.9 100150 84
2003-07-02 06:47:28 51°11.48 2°45.84 18.5 27 15.9 100150 84
2003-07-02 06:47:34 51°11.47 2°45.81 17.6 30 15.9 100140 83
2003-07-02 06:47:38 51°11.46 2°45.78 16.8 31 15.9 100140 83
2003-07-02 06:47:44 51°11.45 2°45.75 16.4 30 15.9 100140 83
2003-07-02 06:47:48 51°11.44 2°45.73 15 25 15.9 100140 83
2003-07-02 06:47:54 51°11.43 2°45.69 15.5 23 15.9 100160 83
2003-07-02 06:47:58 51°11.42 2°45.67 17.3 19 15.9 100160 83
2003-07-02 06:48:04 51°11.41 2°45.64 17.7 22 15.9 100150 83
2003-07-02 06:48:08 51°11.41 2°45.62 16.4 27 15.9 100150 83
2003-07-02 06:48:14 51°11.39 2°45.58 16.7 25 15.9 100160 84
2003-07-02 06:48:18 51°11.39 2°45.56 17.1 30 15.9 100160 84
2003-07-02 06:48:24 51°11.38 2°45.53 16.1 27 15.9 100170 84
2003-07-02 06:48:28 51°11.37 2°45.51 16.3 34 15.9 100170 84
2003-07-02 06:48:34 51°11.36 2°45.47 15.7 30 16 100150 83
2003-07-02 06:48:38 51°11.35 2°45.45 16.6 26 16 100150 83
2003-07-02 06:48:44 51°11.34 2°45.42 16.1 28 16 100160 84
2003-07-02 06:48:48 51°11.33 2°45.39 17.1 31 16 100160 84
2003-07-02 06:48:54 51°11.32 2°45.36 17.5 27 16 100160 83
2003-07-02 06:48:58 51°11.31 2°45.34 16.3 31 16 100160 83
2003-07-02 06:49:04 51°11.3 2°45.3 17.9 22 16 100150 84
2003-07-02 06:49:08 51°11.3 2°45.28 17.6 26 16 100150 84
2003-07-02 06:49:14 51°11.28 2°45.25 18.3 28 16 100160 83
2003-07-02 06:49:18 51°11.28 2°45.23 17.2 26 16 100160 83
2003-07-02 06:49:24 51°11.27 2°45.19 16.8 27 16 100160 83
2003-07-02 06:49:28 51°11.26 2°45.17 16.1 24 16 100160 83
2003-07-02 06:49:34 51°11.25 2°45.14 17.6 24 15.9 100160 83
2003-07-02 06:49:38 51°11.24 2°45.12 18.3 31 15.9 100160 83
2003-07-02 06:49:44 51°11.23 2°45.08 15.8 30 15.9 100150 83
2003-07-02 06:49:48 51°11.22 2°45.06 17.1 33 15.9 100150 83
2003-07-02 06:49:54 51°11.21 2°45.03 18.8 34 16 100150 84
2003-07-02 06:49:58 51°11.21 2°45.01 15.5 32 16 100150 84
2003-07-02 06:50:04 51°11.19 2°44.97 16.9 29 16 100170 83
2003-07-02 06:50:08 51°11.19 2°44.95 17.1 30 16 100170 83
2003-07-02 06:50:14 51°11.18 2°44.92 16.4 25 16 100160 83
2003-07-02 06:50:18 51°11.17 2°44.89 17.3 33 16 100160 83
2003-07-02 06:50:24 51°11.16 2°44.86 17.3 27 16 100160 83
2003-07-02 06:50:28 51°11.15 2°44.84 17.6 28 16 100160 83
2003-07-02 06:50:34 51°11.14 2°44.81 18.5 30 15.9 100150 83
2003-07-02 06:50:38 51°11.13 2°44.78 17.1 31 15.9 100150 83
2003-07-02 06:50:44 51°11.12 2°44.75 16.8 30 16 100150 83
2003-07-02 06:50:48 51°11.12 2°44.73 17.7 30 16 100150 83
2003-07-02 06:50:54 51°11.1 2°44.7 18.2 31 15.9 100160 83
2003-07-02 06:50:58 51°11.1 2°44.67 17.3 29 15.9 100160 83
2003-07-02 06:51:04 51°11.09 2°44.64 16.6 33 15.9 100160 82
2003-07-02 06:51:08 51°11.08 2°44.62 16.4 27 15.9 100160 82
2003-07-02 06:51:14 51°11.07 2°44.58 16.6 31 15.9 100160 82
2003-07-02 06:51:18 51°11.06 2°44.56 15.8 28 15.9 100160 82
2003-07-02 06:51:24 51°11.05 2°44.53 17.2 30 15.9 100150 82
2003-07-02 06:51:28 51°11.04 2°44.5 18 29 15.9 100150 82
2003-07-02 06:51:34 51°11.03 2°44.47 16.3 31 16 100140 83
2003-07-02 06:51:38 51°11.03 2°44.45 17.8 30 16 100140 83
2003-07-02 06:51:44 51°11.02 2°44.41 18.5 25 16 100160 83
2003-07-02 06:51:48 51°11.01 2°44.39 17.4 27 16 100160 83
2003-07-02 06:51:54 51°11 2°44.36 19.6 28 16 100160 83
2003-07-02 06:51:58 51°10.99 2°44.34 18 31 16 100160 83
2003-07-02 06:52:04 51°10.98 2°44.3 17.5 33 16.1 100150 83
2003-07-02 06:52:08 51°10.97 2°44.28 18.6 29 16.1 100150 83
2003-07-02 06:52:14 51°10.96 2°44.25 16.4 28 16 100160 83
2003-07-02 06:52:18 51°10.95 2°44.23 17.5 27 16 100160 83
2003-07-02 06:52:24 51°10.94 2°44.19 17.6 28 16 100150 82
2003-07-02 06:52:28 51°10.94 2°44.17 17.6 31 16 100150 82
2003-07-02 06:52:34 51°10.93 2°44.14 18.3 32 16 100160 82
2003-07-02 06:52:38 51°10.92 2°44.11 18 31 16 100160 82
2003-07-02 06:52:44 51°10.91 2°44.08 18.1 33 16 100170 82
2003-07-02 06:52:48 51°10.9 2°44.06 18.1 35 16 100170 82
2003-07-02 06:52:54 51°10.89 2°44.03 18.3 36 16 100160 82
2003-07-02 06:52:58 51°10.88 2°44 14.7 28 16 100160 82
2003-07-02 06:53:04 51°10.87 2°43.97 16.6 32 15.9 100160 81
2003-07-02 06:53:08 51°10.86 2°43.95 19 34 15.9 100160 81
2003-07-02 06:53:14 51°10.85 2°43.92 17.7 31 15.9 100150 81
2003-07-02 06:53:18 51°10.85 2°43.89 17.9 38 15.9 100150 81
2003-07-02 06:53:24 51°10.83 2°43.86 17.8 37 15.9 100160 82
2003-07-02 06:53:28 51°10.83 2°43.84 16 25 15.9 100160 82
2003-07-02 06:53:34 51°10.82 2°43.8 18 27 15.9 100160 81
2003-07-02 06:53:38 51°10.81 2°43.78 18 32 15.9 100160 81
2003-07-02 06:53:44 51°10.8 2°43.75 17.6 30 15.9 100160 81
2003-07-02 06:53:48 51°10.79 2°43.73 19.3 29 15.9 100160 81
2003-07-02 06:53:54 51°10.78 2°43.69 18.5 28 16 100160 82
2003-07-02 06:53:58 51°10.77 2°43.67 17.8 23 16 100160 82
2003-07-02 06:54:04 51°10.76 2°43.64 16.3 25 16 100170 81
2003-07-02 06:54:08 51°10.76 2°43.62 18.6 29 16 100170 81
2003-07-02 06:54:14 51°10.74 2°43.58 18.9 34 15.9 100160 81
2003-07-02 06:54:18 51°10.74 2°43.56 17.6 33 15.9 100160 81
2003-07-02 06:54:24 51°10.73 2°43.53 18.7 36 15.9 100160 81
2003-07-02 06:54:28 51°10.72 2°43.5 17.2 31 15.9 100160 81
2003-07-02 06:54:34 51°10.71 2°43.47 16.9 34 16 100170 81
2003-07-02 06:54:38 51°10.7 2°43.45 15.7 32 16 100170 81
2003-07-02 06:54:44 51°10.69 2°43.42 16.5 28 16 100160 81
2003-07-02 06:54:48 51°10.69 2°43.39 17.7 32 16 100160 81
2003-07-02 06:54:54 51°10.67 2°43.36 18.3 34 16 100160 81
2003-07-02 06:54:58 51°10.67 2°43.34 17.1 33 16 100160 81
2003-07-02 06:55:04 51°10.66 2°43.3 17 30 15.9 100160 81
2003-07-02 06:55:08 51°10.65 2°43.28 16.6 29 15.9 100160 81
2003-07-02 06:55:14 51°10.64 2°43.25 15.9 31 15.9 100160 80
2003-07-02 06:55:18 51°10.63 2°43.23 17.2 31 15.9 100160 80
2003-07-02 06:55:24 51°10.62 2°43.19 17.2 36 15.9 100160 80
2003-07-02 06:55:28 51°10.62 2°43.17 16.4 30 15.9 100160 80
2003-07-02 06:55:34 51°10.6 2°43.14 16.9 27 15.9 100160 80
2003-07-02 06:55:38 51°10.6 2°43.11 18.2 30 15.9 100160 80
2003-07-02 06:55:44 51°10.59 2°43.08 18.4 29 15.9 100160 81
2003-07-02 06:55:48 51°10.58 2°43.06 17.9 31 15.9 100160 81
2003-07-02 06:55:54 51°10.57 2°43.02 18.2 29 16 100170 81
2003-07-02 06:55:58 51°10.56 2°43 18.6 29 16 100170 81
2003-07-02 06:56:04 51°10.55 2°42.97 16.9 30 16 100160 81
2003-07-02 06:56:08 51°10.54 2°42.95 17.6 33 16 100160 81
2003-07-02 06:56:14 51°10.53 2°42.91 17 28 15.9 100160 80
2003-07-02 06:56:18 51°10.53 2°42.89 17.6 30 15.9 100160 80
2003-07-02 06:56:24 51°10.52 2°42.86 18.2 31 16 100170 81
2003-07-02 06:56:28 51°10.51 2°42.84 17.8 31 16 100170 81
2003-07-02 06:56:34 51°10.5 2°42.8 17.1 32 16 100170 81
2003-07-02 06:56:40 51°10.49 2°42.77 17.3 33 16 100170 81
2003-07-02 06:56:44 51°10.48 2°42.75 17.7 30 16 100160 81
2003-07-02 06:56:48 51°10.47 2°42.72 15.7 33 16 100160 81
2003-07-02 06:56:54 51°10.46 2°42.69 16.5 28 15.9 100170 80
2003-07-02 06:56:58 51°10.46 2°42.67 16.5 29 15.9 100170 80
2003-07-02 06:57:04 51°10.45 2°42.64 15.9 31 15.9 100160 81
2003-07-02 06:57:08 51°10.44 2°42.61 16.8 35 15.9 100160 81
2003-07-02 06:57:14 51°10.43 2°42.58 17.2 32 16 100180 81
2003-07-02 06:57:18 51°10.42 2°42.56 17.7 35 16 100180 81
2003-07-02 06:57:24 51°10.41 2°42.52 17.3 31 16 100170 82
2003-07-02 06:57:28 51°10.41 2°42.5 16.3 29 16 100170 82
2003-07-02 06:57:34 51°10.39 2°42.47 15.1 36 16 100170 81
2003-07-02 06:57:38 51°10.39 2°42.45 16.5 30 16 100170 81
2003-07-02 06:57:44 51°10.38 2°42.41 16.3 36 16 100160 81
2003-07-02 06:57:48 51°10.37 2°42.39 16.3 36 16 100160 81
2003-07-02 06:57:54 51°10.36 2°42.36 15.5 41 16 100170 81
2003-07-02 06:57:58 51°10.35 2°42.33 16 27 16 100170 81
2003-07-02 06:58:04 51°10.34 2°42.3 16 33 16 100170 81
2003-07-02 06:58:08 51°10.34 2°42.28 14.8 27 16 100170 81
2003-07-02 06:58:14 51°10.33 2°42.24 15.2 28 15.9 100170 81
2003-07-02 06:58:20 51°10.32 2°42.21 20 27 15.9 100170 81
2003-07-02 06:58:24 51°10.31 2°42.19 19.3 30 16 100180 81
2003-07-02 06:58:28 51°10.3 2°42.17 18.7 29 16 100180 81
2003-07-02 06:58:32 51°10.3 2°42.14 18.1 28 16 100180 82
2003-07-02 06:58:38 51°10.29 2°42.11 17.4 31 16 100180 82
2003-07-02 06:58:44 51°10.28 2°42.07 17.3 30 16 100180 82
2003-07-02 06:58:48 51°10.27 2°42.05 17.6 30 16 100180 82
2003-07-02 06:58:54 51°10.26 2°42.02 18.8 30 16 100170 81
2003-07-02 06:58:58 51°10.26 2°42 18.9 31 16 100170 81
2003-07-02 06:59:04 51°10.25 2°41.96 18 31 15.9 100180 81
2003-07-02 06:59:08 51°10.24 2°41.94 18.4 33 15.9 100180 81
2003-07-02 06:59:14 51°10.23 2°41.9 17.9 30 15.9 100170 81
2003-07-02 06:59:18 51°10.22 2°41.88 17.3 30 15.9 100170 81
2003-07-02 06:59:24 51°10.21 2°41.85 16.7 31 15.9 100170 81
2003-07-02 06:59:28 51°10.21 2°41.83 16.8 28 15.9 100170 81
2003-07-02 06:59:34 51°10.2 2°41.79 16.7 30 15.9 100170 81
2003-07-02 06:59:38 51°10.19 2°41.77 18.7 34 15.9 100170 81
2003-07-02 06:59:44 51°10.18 2°41.73 18.5 33 15.9 100180 81
2003-07-02 06:59:48 51°10.18 2°41.71 18 37 15.9 100180 81
2003-07-02 06:59:54 51°10.17 2°41.68 17.2 38 15.9 100180 81
2003-07-02 06:59:58 51°10.16 2°41.65 16.8 35 15.9 100180 81
2003-07-02 07:00:04 51°10.15 2°41.62 17.2 35 16 100170 81
2003-07-02 07:00:08 51°10.14 2°41.6 15.6 29 16 100170 81
2003-07-02 07:00:14 51°10.13 2°41.56 16.4 25 16 100180 81
2003-07-02 07:00:20 51°10.12 2°41.53 15.1 30 16 100180 81
2003-07-02 07:00:24 51°10.12 2°41.51 15.2 24 16 100180 82
2003-07-02 07:00:28 51°10.11 2°41.49 15.9 31 16 100180 82
2003-07-02 07:00:34 51°10.1 2°41.45 17.2 23 16 100190 82
2003-07-02 07:00:40 51°10.09 2°41.42 18.2 27 16 100190 82
2003-07-02 07:00:44 51°10.08 2°41.39 18.7 32 16.1 100190 82
2003-07-02 07:00:48 51°10.08 2°41.37 18.1 29 16.1 100190 82
2003-07-02 07:00:54 51°10.07 2°41.34 18.3 31 16.1 100180 82
2003-07-02 07:00:58 51°10.06 2°41.31 16.8 32 16.1 100180 82
2003-07-02 07:01:04 51°10.05 2°41.28 17.5 35 16.1 100180 82
2003-07-02 07:01:08 51°10.05 2°41.26 19.6 32 16.1 100180 82
2003-07-02 07:01:14 51°10.04 2°41.22 17.8 30 16 100170 82
2003-07-02 07:01:18 51°10.03 2°41.2 17.1 31 16 100170 82
2003-07-02 07:01:24 51°10.02 2°41.17 16.9 35 16 100180 82
2003-07-02 07:01:28 51°10.01 2°41.14 16.7 33 16 100180 82
2003-07-02 07:01:34 51°10 2°41.11 17.9 30 16 100180 82
2003-07-02 07:01:40 51°9.99 2°41.08 18.6 35 16 100180 82
2003-07-02 07:01:44 51°9.99 2°41.05 17.6 29 16 100170 81
2003-07-02 07:01:48 51°9.98 2°41.03 17.8 33 16 100170 81
2003-07-02 07:01:54 51°9.97 2°41 17.3 33 16 100180 82
2003-07-02 07:02:00 51°9.96 2°40.96 16.2 32 16 100180 82
2003-07-02 07:02:04 51°9.95 2°40.94 16.8 31 16 100180 81
2003-07-02 07:02:08 51°9.95 2°40.92 17.3 36 16 100180 81
2003-07-02 07:02:14 51°9.94 2°40.88 17.8 34 15.9 100180 81
2003-07-02 07:02:20 51°9.93 2°40.85 18 34 15.9 100180 81
2003-07-02 07:02:24 51°9.92 2°40.83 17.8 34 15.9 100170 81
2003-07-02 07:02:28 51°9.92 2°40.8 17.6 35 15.9 100170 81
2003-07-02 07:02:32 51°9.91 2°40.78 17.9 34 15.9 100180 81
2003-07-02 07:02:40 51°9.9 2°40.74 18.1 35 15.9 100180 81
2003-07-02 07:02:44 51°9.89 2°40.71 16.8 34 15.9 100180 81
2003-07-02 07:02:48 51°9.88 2°40.69 15.8 28 15.9 100180 81
2003-07-02 07:02:54 51°9.87 2°40.66 16.1 29 15.9 100180 81
2003-07-02 07:03:00 51°9.86 2°40.62 16.4 25 15.9 100180 81
2003-07-02 07:03:04 51°9.86 2°40.6 16.8 29 15.9 100170 81
2003-07-02 07:03:08 51°9.85 2°40.58 16.1 31 15.9 100170 81
2003-07-02 07:03:14 51°9.84 2°40.54 15.4 30 15.9 100180 81
2003-07-02 07:03:20 51°9.83 2°40.51 15.2 28 15.9 100180 81
2003-07-02 07:03:24 51°9.83 2°40.49 15.4 26 15.9 100180 81
2003-07-02 07:03:28 51°9.82 2°40.46 16.4 28 15.9 100180 81
2003-07-02 07:03:34 51°9.81 2°40.43 15.7 34 15.9 100190 82
2003-07-02 07:03:40 51°9.8 2°40.39 15.2 31 15.9 100190 82
2003-07-02 07:03:44 51°9.79 2°40.37 15.2 31 15.9 100190 82
2003-07-02 07:03:48 51°9.79 2°40.35 15.7 37 15.9 100190 82
2003-07-02 07:03:54 51°9.78 2°40.31 14.6 28 16 100190 82
2003-07-02 07:04:00 51°9.77 2°40.28 16.2 32 16 100190 82
2003-07-02 07:04:04 51°9.76 2°40.26 14.9 34 16 100190 82
2003-07-02 07:04:08 51°9.76 2°40.23 16.6 38 16 100190 82
2003-07-02 07:04:14 51°9.75 2°40.2 16.3 32 16 100180 82
2003-07-02 07:04:20 51°9.74 2°40.17 16.3 33 16 100180 82
2003-07-02 07:04:24 51°9.73 2°40.14 15.4 33 16 100180 82
2003-07-02 07:04:28 51°9.72 2°40.12 16.6 32 16 100180 82
2003-07-02 07:04:34 51°9.71 2°40.09 14.1 33 16 100190 82
2003-07-02 07:04:40 51°9.7 2°40.05 14.5 24 16 100190 82
2003-07-02 07:04:44 51°9.7 2°40.03 16.5 30 15.9 100180 82
2003-07-02 07:04:48 51°9.69 2°40.01 15.3 27 15.9 100180 82
2003-07-02 07:04:54 51°9.68 2°39.97 16.4 24 16 100180 82
2003-07-02 07:05:00 51°9.67 2°39.94 17.6 30 16 100180 82
2003-07-02 07:05:04 51°9.66 2°39.92 16.8 35 16 100190 83
2003-07-02 07:05:08 51°9.66 2°39.89 18.5 29 16 100190 83
2003-07-02 07:05:14 51°9.65 2°39.86 17.7 33 16 100180 83
2003-07-02 07:05:20 51°9.64 2°39.82 17.4 32 16 100180 83
2003-07-02 07:05:24 51°9.63 2°39.8 16.9 31 16 100180 82
2003-07-02 07:05:28 51°9.63 2°39.78 17.7 31 16 100180 82
2003-07-02 07:05:34 51°9.62 2°39.74 17.2 30 16 100180 82
2003-07-02 07:05:38 51°9.61 2°39.72 17.3 28 16 100180 82
2003-07-02 07:05:44 51°9.6 2°39.69 16.1 29 16 100170 82
2003-07-02 07:05:48 51°9.59 2°39.66 16.5 28 16 100170 82
2003-07-02 07:05:54 51°9.59 2°39.63 16.3 28 15.9 100200 82
2003-07-02 07:05:58 51°9.58 2°39.61 16.5 32 15.9 100200 82
2003-07-02 07:06:04 51°9.57 2°39.57 16.3 31 15.9 100170 82
2003-07-02 07:06:08 51°9.56 2°39.55 16.7 32 15.9 100170 82
2003-07-02 07:06:14 51°9.56 2°39.51 17.3 32 15.9 100180 82
2003-07-02 07:06:20 51°9.55 2°39.48 17 29 15.9 100180 82
2003-07-02 07:06:24 51°9.54 2°39.46 17.1 29 16 100180 82
2003-07-02 07:06:28 51°9.54 2°39.43 17.6 31 16 100180 82
2003-07-02 07:06:34 51°9.53 2°39.4 17 28 15.9 100170 82
2003-07-02 07:06:38 51°9.52 2°39.37 18.4 31 15.9 100170 82
2003-07-02 07:06:44 51°9.51 2°39.34 18.6 30 15.9 100180 82
2003-07-02 07:06:48 51°9.51 2°39.32 17.2 31 15.9 100180 82
2003-07-02 07:06:54 51°9.5 2°39.28 17.3 29 15.9 100180 82
2003-07-02 07:07:00 51°9.49 2°39.25 16.7 33 15.9 100180 82
2003-07-02 07:07:04 51°9.48 2°39.22 17.6 31 15.9 100180 82
2003-07-02 07:07:08 51°9.48 2°39.2 16.6 29 15.9 100180 82
2003-07-02 07:07:14 51°9.47 2°39.17 17.4 34 15.8 100180 81
2003-07-02 07:07:20 51°9.46 2°39.13 17.3 31 15.8 100180 81
2003-07-02 07:07:24 51°9.45 2°39.11 17.1 29 15.9 100190 81
2003-07-02 07:07:28 51°9.44 2°39.09 16.5 25 15.9 100190 81
2003-07-02 07:07:34 51°9.44 2°39.05 17.5 26 15.9 100200 81
2003-07-02 07:07:38 51°9.43 2°39.03 17.9 28 15.9 100200 81
2003-07-02 07:07:44 51°9.42 2°38.99 17 32 15.9 100200 82
2003-07-02 07:07:48 51°9.41 2°38.97 16.1 25 15.9 100200 82
2003-07-02 07:07:54 51°9.41 2°38.94 16.7 23 15.9 100190 82
2003-07-02 07:08:00 51°9.4 2°38.9 17.1 29 15.9 100190 82
2003-07-02 07:08:04 51°9.39 2°38.88 15.9 26 15.9 100190 82
2003-07-02 07:08:08 51°9.39 2°38.85 17.9 25 15.9 100190 82
2003-07-02 07:08:14 51°9.38 2°38.82 16.9 25 15.9 100180 82
2003-07-02 07:08:18 51°9.37 2°38.8 15.7 28 15.9 100180 82
2003-07-02 07:08:24 51°9.36 2°38.76 16.3 30 15.9 100200 82
2003-07-02 07:08:28 51°9.35 2°38.74 18.1 28 15.9 100200 82
2003-07-02 07:08:34 51°9.35 2°38.7 17.3 29 16 100200 82
2003-07-02 07:08:40 51°9.34 2°38.67 17.5 27 16 100200 82
2003-07-02 07:08:44 51°9.33 2°38.65 15.8 26 16 100190 82
2003-07-02 07:08:48 51°9.32 2°38.62 16.5 23 16 100190 82
2003-07-02 07:08:52 51°9.32 2°38.6 16.8 25 15.9 100200 82
2003-07-02 07:09:00 51°9.31 2°38.55 17 21 15.9 100200 82
2003-07-02 07:09:04 51°9.3 2°38.53 17 25 15.9 100180 82
2003-07-02 07:09:08 51°9.3 2°38.51 18 22 15.9 100180 82
2003-07-02 07:09:14 51°9.29 2°38.47 17.8 16 16 100190 82
2003-07-02 07:09:20 51°9.28 2°38.44 18.2 20 16 100190 82
2003-07-02 07:09:24 51°9.28 2°38.41 16.8 22 16 100200 82
2003-07-02 07:09:28 51°9.27 2°38.39 17.4 23 16 100200 82
2003-07-02 07:09:34 51°9.27 2°38.35 17 26 16 100190 82
2003-07-02 07:09:40 51°9.26 2°38.31 17.3 25 16 100190 82
2003-07-02 07:09:44 51°9.25 2°38.29 18 24 16 100200 82
2003-07-02 07:09:48 51°9.25 2°38.27 19.1 21 16 100200 82
2003-07-02 07:09:54 51°9.24 2°38.23 18.5 20 16 100200 82
2003-07-02 07:10:00 51°9.24 2°38.2 18.2 21 16 100200 82
2003-07-02 07:10:04 51°9.23 2°38.17 18.1 22 16 100190 82
2003-07-02 07:10:08 51°9.23 2°38.15 18.8 23 16 100190 82
2003-07-02 07:10:14 51°9.22 2°38.11 18.3 22 16 100190 81
2003-07-02 07:10:20 51°9.21 2°38.07 17.5 23 16 100190 81
2003-07-02 07:10:24 51°9.21 2°38.05 16.7 22 15.9 100200 81
2003-07-02 07:10:28 51°9.2 2°38.03 17.8 24 15.9 100200 81
2003-07-02 07:10:34 51°9.2 2°37.99 17.6 27 15.9 100200 81
2003-07-02 07:10:40 51°9.19 2°37.95 17.8 32 15.9 100200 81
2003-07-02 07:10:44 51°9.19 2°37.93 17.6 27 15.9 100190 81
2003-07-02 07:10:48 51°9.18 2°37.91 18.2 26 15.9 100190 81
2003-07-02 07:10:54 51°9.17 2°37.87 17.8 27 15.9 100200 82
2003-07-02 07:10:58 51°9.17 2°37.85 17.1 25 15.9 100200 82
2003-07-02 07:11:04 51°9.16 2°37.81 17.5 26 15.9 100210 82
2003-07-02 07:11:08 51°9.16 2°37.79 17.1 25 15.9 100210 82
2003-07-02 07:11:14 51°9.15 2°37.75 16.3 27 15.9 100190 82
2003-07-02 07:11:18 51°9.15 2°37.73 15.5 24 15.9 100190 82
2003-07-02 07:11:24 51°9.14 2°37.69 15.3 21 15.9 100190 81
2003-07-02 07:11:28 51°9.14 2°37.67 16.7 20 15.9 100190 81
2003-07-02 07:11:34 51°9.13 2°37.63 17.6 18 15.9 100190 81
2003-07-02 07:11:40 51°9.13 2°37.6 17.6 19 15.9 100190 81
2003-07-02 07:11:44 51°9.12 2°37.58 17.5 14 15.9 100200 81
2003-07-02 07:11:48 51°9.12 2°37.56 16.4 17 15.9 100200 81
2003-07-02 07:11:54 51°9.12 2°37.52 16 14 15.9 100200 82
2003-07-02 07:11:58 51°9.12 2°37.5 16.3 16 15.9 100200 82
2003-07-02 07:12:04 51°9.11 2°37.47 16.9 16 15.9 100210 81
2003-07-02 07:12:08 51°9.11 2°37.45 15.7 20 15.9 100210 81
2003-07-02 07:12:14 51°9.11 2°37.42 16.1 17 15.9 100200 81
2003-07-02 07:12:20 51°9.11 2°37.4 15.6 19 15.9 100200 81
2003-07-02 07:12:24 51°9.11 2°37.38 15 22 15.9 100210 81
2003-07-02 07:12:28 51°9.1 2°37.37 15.3 17 15.9 100210 81
2003-07-02 07:12:34 51°9.1 2°37.34 14.3 21 15.9 100190 81
2003-07-02 07:12:40 51°9.1 2°37.32 13.9 22 15.9 100190 81
2003-07-02 07:12:44 51°9.1 2°37.31 13.7 15 15.9 100200 81
2003-07-02 07:12:48 51°9.1 2°37.29 13.6 23 15.9 100200 81
2003-07-02 07:12:54 51°9.1 2°37.28 12 24 15.9 100200 81
2003-07-02 07:12:58 51°9.1 2°37.27 12.8 17 15.9 100200 81
2003-07-02 07:13:04 51°9.1 2°37.25 12.8 14 15.9 100210 82
2003-07-02 07:13:08 51°9.1 2°37.24 12.3 7 15.9 100210 82
2003-07-02 07:13:14 51°9.1 2°37.23 12.1 5 16 100210 82
2003-07-02 07:13:20 51°9.1 2°37.23 11.4 358 16 100210 82
2003-07-02 07:13:24 51°9.1 2°37.22 10.6 354 16 100210 82
2003-07-02 07:13:28 51°9.09 2°37.22 9 352 16 100210 82
2003-07-02 07:13:34 51°9.09 2°37.22 9.1 352 16 100210 82
2003-07-02 07:13:38 51°9.09 2°37.22 9.1 353 16 100210 82
2003-07-02 07:13:44 51°9.09 2°37.21 9.6 351 15.9 100220 81
2003-07-02 07:13:48 51°9.09 2°37.21 9.6 359 15.9 100220 81
2003-07-02 07:13:54 51°9.09 2°37.21 10.1 358 15.9 100210 81
2003-07-02 07:14:00 51°9.09 2°37.21 8.5 350 15.9 100210 81
2003-07-02 07:14:04 51°9.09 2°37.21 9.1 354 15.9 100210 82
2003-07-02 07:14:10 51°9.09 2°37.21 8.7 353 15.9 100210 82
2003-07-02 07:14:16 51°9.08 2°37.21 9.4 353 16 100210 82
2003-07-02 07:14:20 51°9.08 2°37.21 9.8 355 16 100210 82
2003-07-02 07:14:26 51°9.08 2°37.21 9.1 356 16 100210 82
2003-07-02 07:14:32 51°9.08 2°37.21 9.3 347 16 100210 82
2003-07-02 07:14:36 51°9.08 2°37.21 8.4 346 16 100190 82
2003-07-02 07:14:42 51°9.08 2°37.21 9.5 341 16 100190 82
2003-07-02 07:14:46 51°9.08 2°37.21 10.4 337 16 100210 82
2003-07-02 07:14:52 51°9.08 2°37.21 9.2 343 16 100210 82
2003-07-02 07:14:58 51°9.08 2°37.21 8.5 337 16 100200 82
2003-07-02 07:15:02 51°9.08 2°37.21 9.8 340 16 100200 82
2003-07-02 07:15:08 51°9.08 2°37.21 11.1 339 16 100200 82
2003-07-02 07:15:14 51°9.08 2°37.21 10.1 333 16 100200 82
2003-07-02 07:15:18 51°9.07 2°37.21 10.1 334 16 100190 82
2003-07-02 07:15:24 51°9.07 2°37.21 9.6 334 16 100190 82
2003-07-02 07:15:28 51°9.07 2°37.21 10.3 332 16 100200 82
2003-07-02 07:15:34 51°9.07 2°37.21 10.3 325 16 100200 82
2003-07-02 07:15:38 51°9.07 2°37.21 10.4 320 16 100190 82
2003-07-02 07:15:44 51°9.07 2°37.21 10.5 318 16 100190 82
2003-07-02 07:15:48 51°9.07 2°37.21 10 312 16 100190 82
2003-07-02 07:15:52 51°9.07 2°37.21 10.2 318 16 100190 82
2003-07-02 07:15:56 51°9.07 2°37.21 10.5 322 16 100180 82
2003-07-02 07:16:00 51°9.07 2°37.21 11.5 227 16 100180 82
2003-07-02 07:16:06 51°9.06 2°37.21 10.4 308 16 100210 82
2003-07-02 07:16:10 51°9.06 2°37.21 10.6 311 16 100210 82
2003-07-02 07:16:14 51°9.06 2°37.21 10.3 313 16 100210 82
2003-07-02 07:16:20 51°9.06 2°37.21 10 230 16 100210 82
2003-07-02 07:16:24 51°9.06 2°37.21 10.7 318 16 100200 82
2003-07-02 07:16:28 51°9.06 2°37.21 10.9 315 16 100200 82
2003-07-02 07:16:34 51°9.06 2°37.21 10.3 44 16 100210 82
2003-07-02 07:16:38 51°9.06 2°37.21 10.8 315 16 100210 82
2003-07-02 07:16:44 51°9.06 2°37.21 9.9 312 16 100220 81
2003-07-02 07:16:48 51°9.05 2°37.21 11.4 311 16 100220 81
2003-07-02 07:16:54 51°9.05 2°37.21 11.9 305 16 100220 81
2003-07-02 07:16:58 51°9.05 2°37.21 11.7 304 16 100220 81
2003-07-02 07:17:04 51°9.05 2°37.21 11.8 305 16 100220 81
2003-07-02 07:17:08 51°9.05 2°37.21 11.5 293 16 100220 81
2003-07-02 07:17:14 51°9.05 2°37.21 11.8 291 16 100220 81
2003-07-02 07:17:18 51°9.05 2°37.21 11.2 285 16 100220 81
2003-07-02 07:17:24 51°9.05 2°37.21 11.8 287 16 100220 80
2003-07-02 07:17:28 51°9.05 2°37.21 11.3 284 16 100220 80
2003-07-02 07:17:34 51°9.04 2°37.21 11 280 15.9 100210 80
2003-07-02 07:17:40 51°9.04 2°37.21 10.3 285 15.9 100210 80
2003-07-02 07:17:44 51°9.04 2°37.21 10 280 15.9 100220 80
2003-07-02 07:17:48 51°9.04 2°37.2 10.7 278 15.9 100220 80
2003-07-02 07:17:54 51°9.04 2°37.2 9.5 280 15.9 100220 80
2003-07-02 07:18:00 51°9.04 2°37.2 10.1 280 15.9 100220 80
2003-07-02 07:18:04 51°9.04 2°37.2 10.8 282 15.9 100220 80
2003-07-02 07:18:08 51°9.04 2°37.2 9.5 278 15.9 100220 80
2003-07-02 07:18:14 51°9.04 2°37.2 9.7 281 15.9 100230 80
2003-07-02 07:18:20 51°9.04 2°37.2 10.9 281 15.9 100230 80
2003-07-02 07:18:24 51°9.04 2°37.2 11.4 280 16 100230 81
2003-07-02 07:18:28 51°9.04 2°37.2 11.3 275 16 100230 81
2003-07-02 07:18:34 51°9.04 2°37.2 12.6 274 16.1 100230 81
2003-07-02 07:18:38 51°9.04 2°37.2 13.1 272 16.1 100230 81
2003-07-02 07:18:44 51°9.04 2°37.2 11.3 274 16.1 100230 81
2003-07-02 07:18:48 51°9.03 2°37.2 12.2 271 16.1 100230 81
2003-07-02 07:18:54 51°9.03 2°37.2 11.9 272 16.1 100240 81
2003-07-02 07:18:58 51°9.03 2°37.2 11.8 271 16.1 100240 81
2003-07-02 07:19:04 51°9.03 2°37.2 12.8 272 16 100230 80
2003-07-02 07:19:08 51°9.03 2°37.2 13 273 16 100230 80
2003-07-02 07:19:14 51°9.03 2°37.2 12.2 269 16 100240 80
2003-07-02 07:19:18 51°9.03 2°37.2 11.2 270 16 100240 80
2003-07-02 07:19:24 51°9.03 2°37.2 11.2 269 16 100240 80
2003-07-02 07:19:28 51°9.03 2°37.2 11.2 274 16 100240 80
2003-07-02 07:19:34 51°9.03 2°37.2 10.5 272 16 100230 80
2003-07-02 07:19:40 51°9.04 2°37.2 13 270 16 100230 80
2003-07-02 07:19:44 51°9.04 2°37.2 11.6 270 16 100230 80
2003-07-02 07:19:48 51°9.04 2°37.2 13.4 272 16 100230 80
2003-07-02 07:19:54 51°9.04 2°37.2 12 274 16 100230 80
2003-07-02 07:19:58 51°9.04 2°37.2 11.5 274 16 100230 80
2003-07-02 07:20:04 51°9.04 2°37.2 10.1 273 16.1 100230 81
2003-07-02 07:20:08 51°9.04 2°37.2 11.1 274 16.1 100230 81
2003-07-02 07:20:14 51°9.04 2°37.2 10.8 281 16.1 100230 80
2003-07-02 07:20:18 51°9.04 2°37.2 10.4 282 16.1 100230 80
2003-07-02 07:20:24 51°9.04 2°37.2 10.1 285 16.1 100230 80
2003-07-02 07:20:28 51°9.04 2°37.2 11.1 290 16.1 100230 80
2003-07-02 07:20:34 51°9.04 2°37.2 10.8 289 16.1 100240 80
2003-07-02 07:20:38 51°9.04 2°37.2 11.2 287 16.1 100240 80
2003-07-02 07:20:44 51°9.04 2°37.2 10.9 286 16.1 100230 80
2003-07-02 07:20:48 51°9.04 2°37.2 10.3 285 16.1 100230 80
2003-07-02 07:20:54 51°9.04 2°37.2 11 282 16.1 100230 80
2003-07-02 07:21:00 51°9.05 2°37.2 10.9 286 16.1 100230 80
2003-07-02 07:21:04 51°9.05 2°37.2 10.4 291 16.1 100220 80
2003-07-02 07:21:08 51°9.05 2°37.19 9.8 290 16.1 100220 80
2003-07-02 07:21:14 51°9.05 2°37.19 9.9 285 16.1 100230 80
2003-07-02 07:21:18 51°9.05 2°37.19 9.3 290 16.1 100230 80
2003-07-02 07:21:24 51°9.05 2°37.19 9.5 293 16.1 100220 80
2003-07-02 07:21:28 51°9.05 2°37.19 11.3 294 16.1 100220 80
2003-07-02 07:21:34 51°9.05 2°37.19 11.3 293 16.1 100230 80
2003-07-02 07:21:38 51°9.05 2°37.19 12.1 289 16.1 100230 80
2003-07-02 07:21:44 51°9.05 2°37.19 11.7 287 16.1 100230 80
2003-07-02 07:21:48 51°9.06 2°37.19 10 291 16.1 100230 80
2003-07-02 07:21:54 51°9.06 2°37.19 10.6 284 16.1 100220 81
2003-07-02 07:22:00 51°9.06 2°37.19 9.2 285 16.1 100220 81
2003-07-02 07:22:04 51°9.06 2°37.19 9.8 277 16.1 100220 81
2003-07-02 07:22:08 51°9.06 2°37.19 12.3 281 16.1 100220 81
2003-07-02 07:22:14 51°9.06 2°37.19 11.6 285 16.1 100220 80
2003-07-02 07:22:20 51°9.06 2°37.19 12.6 286 16.1 100220 80
2003-07-02 07:22:24 51°9.06 2°37.19 11.4 279 16.3 100220 81
2003-07-02 07:22:28 51°9.07 2°37.18 11.5 288 16.3 100220 81
2003-07-02 07:22:34 51°9.07 2°37.18 12.4 289 16.2 100220 81
2003-07-02 07:22:38 51°9.07 2°37.18 12 288 16.2 100220 81
2003-07-02 07:22:44 51°9.07 2°37.18 11.1 283 16.1 100230 81
2003-07-02 07:22:48 51°9.07 2°37.18 12.5 286 16.1 100230 81
2003-07-02 07:22:54 51°9.07 2°37.18 11.9 283 16.1 100230 81
2003-07-02 07:22:58 51°9.07 2°37.18 11.5 289 16.1 100230 81
2003-07-02 07:23:04 51°9.07 2°37.18 12.3 291 16.1 100230 80
2003-07-02 07:23:08 51°9.08 2°37.18 12.2 294 16.1 100230 80
2003-07-02 07:23:14 51°9.08 2°37.18 10.5 292 16.1 100240 80
2003-07-02 07:23:20 51°9.08 2°37.18 11.4 291 16.1 100240 80
2003-07-02 07:23:24 51°9.08 2°37.18 11.5 291 16.1 100230 80
2003-07-02 07:23:28 51°9.08 2°37.18 11.4 285 16.1 100230 80
2003-07-02 07:23:34 51°9.08 2°37.18 11.7 283 16.1 100220 80
2003-07-02 07:23:40 51°9.08 2°37.18 10.3 291 16.1 100220 80
2003-07-02 07:23:44 51°9.09 2°37.18 10.6 290 16.1 100230 80
2003-07-02 07:23:48 51°9.09 2°37.18 12.5 290 16.1 100230 80
2003-07-02 07:23:54 51°9.09 2°37.18 11.5 286 16 100220 79
2003-07-02 07:23:58 51°9.09 2°37.17 12.2 291 16 100220 79
2003-07-02 07:24:04 51°9.09 2°37.17 12.1 288 16 100230 79
2003-07-02 07:24:08 51°9.09 2°37.17 13.4 289 16 100230 79
2003-07-02 07:24:14 51°9.09 2°37.17 12.2 286 16 100220 80
2003-07-02 07:24:20 51°9.09 2°37.17 12.4 291 16 100220 80
2003-07-02 07:24:24 51°9.1 2°37.17 11.6 284 16 100230 79
2003-07-02 07:24:28 51°9.1 2°37.17 12.5 291 16 100230 79
2003-07-02 07:24:34 51°9.1 2°37.17 12.1 296 16 100220 79
2003-07-02 07:24:40 51°9.1 2°37.17 10.5 286 16 100220 79
2003-07-02 07:24:44 51°9.1 2°37.17 11.2 283 16 100220 79
2003-07-02 07:24:48 51°9.1 2°37.17 11.7 288 16 100220 79
2003-07-02 07:24:54 51°9.1 2°37.17 11.3 285 16 100230 79
2003-07-02 07:25:00 51°9.1 2°37.17 11.2 292 16 100230 79
2003-07-02 07:25:04 51°9.1 2°37.16 11.6 294 16.1 100230 79
2003-07-02 07:25:08 51°9.1 2°37.16 12.2 284 16.1 100230 79
2003-07-02 07:25:14 51°9.11 2°37.16 12.5 293 16.1 100220 79
2003-07-02 07:25:18 51°9.11 2°37.16 10.7 286 16.1 100220 79
2003-07-02 07:25:24 51°9.11 2°37.16 11.9 282 16 100230 79
2003-07-02 07:25:28 51°9.11 2°37.16 10.9 280 16 100230 79
2003-07-02 07:25:34 51°9.11 2°37.16 11.4 278 16 100240 79
2003-07-02 07:25:38 51°9.11 2°37.16 10.6 288 16 100240 79
2003-07-02 07:25:44 51°9.11 2°37.16 11.9 292 16.1 100230 79
2003-07-02 07:25:48 51°9.11 2°37.16 12.2 293 16.1 100230 79
2003-07-02 07:25:54 51°9.11 2°37.16 11.6 291 16.1 100230 79
2003-07-02 07:25:58 51°9.11 2°37.16 11.2 293 16.1 100230 79
2003-07-02 07:26:04 51°9.11 2°37.16 11.6 287 16.1 100240 79
2003-07-02 07:26:08 51°9.11 2°37.16 12.1 292 16.1 100240 79
2003-07-02 07:26:14 51°9.11 2°37.16 12.6 292 16.1 100230 79
2003-07-02 07:26:20 51°9.11 2°37.15 11.4 290 16.1 100230 79
2003-07-02 07:26:24 51°9.11 2°37.15 10.6 287 16 100240 79
2003-07-02 07:26:28 51°9.11 2°37.15 10.9 288 16 100240 79
2003-07-02 07:26:34 51°9.11 2°37.15 12.1 290 16.1 100230 79
2003-07-02 07:26:40 51°9.11 2°37.15 11.1 289 16.1 100230 79
2003-07-02 07:26:44 51°9.11 2°37.15 10.5 290 16.1 100220 79
2003-07-02 07:26:48 51°9.11 2°37.15 12.2 285 16.1 100220 79
2003-07-02 07:26:54 51°9.11 2°37.15 12 284 16.1 100230 79
2003-07-02 07:27:00 51°9.11 2°37.15 11.6 282 16.1 100230 79
2003-07-02 07:27:04 51°9.11 2°37.15 12.5 285 16.1 100220 79
2003-07-02 07:27:08 51°9.11 2°37.15 11.7 282 16.1 100220 79
2003-07-02 07:27:14 51°9.11 2°37.15 11.6 283 16.1 100230 79
2003-07-02 07:27:20 51°9.11 2°37.15 11.2 279 16.1 100230 79
2003-07-02 07:27:24 51°9.11 2°37.15 11.4 280 16 100230 79
2003-07-02 07:27:28 51°9.11 2°37.15 11.5 283 16 100230 79
2003-07-02 07:27:34 51°9.11 2°37.15 10.4 281 16 100230 79
2003-07-02 07:27:38 51°9.11 2°37.15 9.7 272 16 100230 79
2003-07-02 07:27:44 51°9.11 2°37.15 10.9 270 16 100230 79
2003-07-02 07:27:48 51°9.11 2°37.15 12.1 273 16 100230 79
2003-07-02 07:27:54 51°9.11 2°37.15 10.3 276 16 100230 79
2003-07-02 07:27:58 51°9.11 2°37.15 10.9 276 16 100230 79
2003-07-02 07:28:04 51°9.11 2°37.14 11.1 281 16 100240 79
2003-07-02 07:28:08 51°9.11 2°37.14 10 277 16 100240 79
2003-07-02 07:28:14 51°9.11 2°37.14 10.2 287 16 100230 79
2003-07-02 07:28:18 51°9.11 2°37.14 10.3 286 16 100230 79
2003-07-02 07:28:24 51°9.11 2°37.14 11.6 284 16.1 100240 79
2003-07-02 07:28:28 51°9.11 2°37.14 12.3 275 16.1 100240 79
2003-07-02 07:28:34 51°9.11 2°37.14 13.3 277 16.1 100230 79
2003-07-02 07:28:38 51°9.11 2°37.14 11.9 265 16.1 100230 79
2003-07-02 07:28:44 51°9.11 2°37.14 11.1 269 16.1 100240 80
2003-07-02 07:28:48 51°9.11 2°37.14 10.8 279 16.1 100240 80
2003-07-02 07:28:54 51°9.11 2°37.14 10 276 16.1 100230 80
2003-07-02 07:29:00 51°9.11 2°37.14 12.1 271 16.1 100230 80
2003-07-02 07:29:04 51°9.11 2°37.14 11.8 278 16.1 100230 80
2003-07-02 07:29:08 51°9.11 2°37.14 11.9 274 16.1 100230 80
2003-07-02 07:29:14 51°9.11 2°37.14 13.2 268 16.1 100230 80
2003-07-02 07:29:20 51°9.11 2°37.14 11.4 263 16.1 100230 80
2003-07-02 07:29:24 51°9.11 2°37.14 12.7 267 16.1 100240 79
2003-07-02 07:29:28 51°9.11 2°37.14 11.5 271 16.1 100240 79
2003-07-02 07:29:34 51°9.1 2°37.14 12.5 258 16.1 100240 80
2003-07-02 07:29:40 51°9.1 2°37.14 12.3 267 16.1 100240 80
2003-07-02 07:29:44 51°9.1 2°37.14 11.7 275 16.1 100220 80
2003-07-02 07:29:48 51°9.1 2°37.14 11.6 271 16.1 100220 80
2003-07-02 07:29:54 51°9.1 2°37.14 11.7 272 16.1 100240 80
2003-07-02 07:30:00 51°9.1 2°37.14 11.6 274 16.1 100240 80
2003-07-02 07:30:04 51°9.1 2°37.14 11.8 272 16.1 100250 80
2003-07-02 07:30:08 51°9.1 2°37.14 11.8 269 16.1 100250 80
2003-07-02 07:30:14 51°9.1 2°37.14 11.4 269 16.1 100250 80
2003-07-02 07:30:20 51°9.1 2°37.14 11.2 272 16.1 100250 80
2003-07-02 07:30:24 51°9.1 2°37.14 12 271 16.1 100250 80
2003-07-02 07:30:28 51°9.1 2°37.14 12.3 268 16.1 100250 80
2003-07-02 07:30:34 51°9.1 2°37.14 13.2 269 16.1 100240 80
2003-07-02 07:30:40 51°9.1 2°37.13 13.3 270 16.1 100240 80
2003-07-02 07:30:44 51°9.1 2°37.13 11.4 268 16 100240 80
2003-07-02 07:30:48 51°9.1 2°37.13 11.6 267 16 100240 80
2003-07-02 07:30:54 51°9.1 2°37.13 11.5 269 16 100240 80
2003-07-02 07:31:00 51°9.1 2°37.13 12.1 266 16 100240 80
2003-07-02 07:31:04 51°9.1 2°37.13 9.9 264 16 100250 79
2003-07-02 07:31:08 51°9.1 2°37.13 12.9 273 16 100250 79
2003-07-02 07:31:14 51°9.1 2°37.13 11.9 277 16 100240 79
2003-07-02 07:31:18 51°9.1 2°37.13 11.5 277 16 100240 79
2003-07-02 07:31:24 51°9.1 2°37.13 11.3 277 16 100230 80
2003-07-02 07:31:28 51°9.1 2°37.13 9.9 270 16 100230 80
2003-07-02 07:31:34 51°9.1 2°37.13 10.2 274 16.1 100250 80
2003-07-02 07:31:38 51°9.1 2°37.13 10.6 274 16.1 100250 80
2003-07-02 07:31:44 51°9.1 2°37.13 11.4 271 16.1 100250 80
2003-07-02 07:31:48 51°9.1 2°37.13 11.3 272 16.1 100250 80
2003-07-02 07:31:54 51°9.1 2°37.13 11.1 270 16.1 100240 80
2003-07-02 07:32:00 51°9.09 2°37.13 12.8 270 16.1 100240 80
2003-07-02 07:32:04 51°9.09 2°37.13 11.6 271 16.1 100250 80
2003-07-02 07:32:08 51°9.09 2°37.13 11.2 267 16.1 100250 80
2003-07-02 07:32:14 51°9.09 2°37.13 11.2 263 16.1 100240 80
2003-07-02 07:32:20 51°9.09 2°37.13 11.9 265 16.1 100240 80
2003-07-02 07:32:24 51°9.09 2°37.13 10.4 264 16.1 100250 80
2003-07-02 07:32:28 51°9.09 2°37.13 10 264 16.1 100250 80
2003-07-02 07:32:34 51°9.09 2°37.13 10.9 263 16.1 100250 80
2003-07-02 07:32:38 51°9.09 2°37.13 10.4 272 16.1 100250 80
2003-07-02 07:32:44 51°9.09 2°37.13 12.5 267 16.1 100240 80
2003-07-02 07:32:48 51°9.09 2°37.12 10.8 266 16.1 100240 80